[[{"header":{"parameterUnit":"m.s-1","parameterCategory":1,"la1":30.2991,"la2":30.254,"lo1":-89.0895,"lo2":-89.0444,"dy":0.0017,"dx":0.0017,"nx":28,"ny":28,"refTime":"2024-12-15T09:00:00:Z","depth":0,"parameterNumber":2,"parameterNumberName":"U-component_of_WINDS"},"data":[0,0,0,0,0,0,0,0,0,0,0,0,0,0,0,0,0,0,0,0,0,0,0,0,0,0,0,0,0,0,0,0,0,0,0,0,0,0,0,0,0,0,0,0,0,0,0,0,0,0,0,0,0,0,0,0,0,0,-3.7203,-3.7203,0,-3.7239,-3.7239,-3.7239,-3.7195,-3.7193,-3.7191,-3.719,-3.7228,-3.7231,-3.7233,0,0,0,0,0,0,0,0,0,0,0,0,0,-3.7099,-3.7101,-3.7203,-3.7203,-3.7204,-3.7239,-3.7239,-3.724,-3.7195,-3.7193,-3.7191,-3.7189,-3.7227,-3.723,-3.7233,0,0,0,0,0,0,0,0,0,0,0,0,0,-3.7141,-3.7102,-3.7203,-3.7186,-3.7184,-3.7238,-3.7239,-3.724,-3.7195,-3.7193,-3.719,-3.7188,-3.7226,-3.723,-3.7234,-3.7307,0,0,-3.7246,-3.7247,0,0,0,0,0,0,0,0,-3.7138,-3.7144,-3.7188,-3.7187,-3.7186,-3.721,-3.7216,-3.7262,-3.7196,-3.7191,-3.719,-3.7187,-3.7224,-3.7228,-3.724,-3.7309,-3.731,-3.7246,-3.7248,-3.725,-3.7251,0,0,0,0,0,0,0,-3.7135,-3.7143,-3.7217,-3.7188,-3.7187,-3.7177,-3.718,-3.7225,-3.7221,-3.7191,-3.7188,-3.7193,-3.7223,-3.7237,-3.7241,-3.7311,-3.7246,-3.7249,-3.7252,-3.7253,-3.7443,-3.7446,0,0,0,0,0,0,-3.7134,-3.7141,-3.7216,-3.7218,-3.7155,-3.7181,-3.7185,-3.7204,-3.7221,-3.7221,-3.7195,-3.7191,-3.7231,-3.7236,-3.7242,-3.7329,-3.725,-3.7254,-3.7256,-3.7441,-3.7444,-3.7447,0,0,0,0,0,0,-3.7132,-3.7141,-3.7214,-3.7179,-3.7187,-3.7185,-3.7208,-3.7206,-3.722,-3.7223,-3.7223,-3.7209,-3.723,-3.7237,-3.7291,-3.733,-3.7255,-3.7259,-3.7438,-3.7442,-3.7446,-3.7505,0,0,0,0,0,0,-3.7129,-3.7141,-3.7168,-3.7179,-3.7189,-3.7262,-3.7211,-3.7209,-3.7226,-3.7221,-3.7236,-3.7237,-3.7228,-3.7286,-3.7295,-3.7334,-3.7262,-3.7434,-3.7439,-3.7444,-3.7499,-3.751,-3.752,0,0,0,0,0,-3.7126,-3.7183,-3.7169,-3.7179,-3.7222,-3.7265,-3.727,-3.7259,-3.723,-3.7257,-3.726,-3.7236,-3.7325,-3.7292,-3.7302,-3.7343,-3.7432,-3.7438,-3.7444,-3.7494,-3.7508,-3.7519,0,0,0,0,0,0,-3.7176,-3.7184,-3.7169,-3.7231,-3.7248,-3.7257,-3.7291,-3.7273,-3.7298,-3.7293,-3.7278,-3.7282,-3.7341,-3.7347,-3.7311,-3.7415,-3.7373,-3.7382,-3.7408,-3.7421,-3.7431,-3.7428,-3.7265,0,0,0,0,0,-3.7194,-3.7227,-3.7233,-3.7287,-3.7296,-3.7293,-3.7311,-3.73,-3.7317,-3.7324,-3.733,-3.7348,-3.738,-3.7401,-3.743,-3.75,-3.7504,-3.7533,-3.7544,-3.7552,-3.7559,-3.7598,-3.7612,-3.7467,-3.7467,-3.7467,0,0,-3.7232,-3.7241,-3.7262,-3.7298,-3.7309,-3.7344,-3.7299,-3.7337,-3.7364,-3.733,-3.7382,-3.7388,-3.7407,-3.747,-3.7498,-3.7477,-3.7601,-3.756,-3.7567,-3.7569,-3.7606,-3.762,-3.7632,-3.7472,-3.7471,-3.747,0,0,-3.7319,-3.7329,-3.7376,-3.7388,-3.7407,-3.7404,-3.7416,-3.7428,-3.7431,-3.7483,-3.7459,-3.7491,-3.7545,-3.756,-3.7575,-3.7671,-3.7651,-3.7681,-3.7734,-3.7773,-3.7784,-3.7794,-3.7829,-3.7842,-3.7689,-3.7689,-3.7689,0,-3.7364,-3.7415,-3.7402,-3.7443,-3.746,-3.7431,-3.748,-3.7493,-3.752,-3.7533,-3.7509,-3.7579,-3.7589,-3.7656,-3.768,-3.7693,-3.7706,-3.7679,-3.7783,-3.7793,-3.7802,-3.7836,-3.7849,-3.7692,-3.7692,-3.7692,-3.7691,0,-3.747,-3.7507,-3.7543,-3.757,-3.7591,-3.7635,-3.763,-3.7653,-3.7642,-3.7643,-3.7698,-3.771,-3.7742,-3.7757,-3.7747,-3.7823,-3.781,-3.7785,-3.7743,-3.782,-3.7851,-3.7864,-3.7698,-3.7696,-3.7695,-3.7694,0,0,-3.7588,-3.7608,-3.7622,-3.7634,-3.7653,-3.7682,-3.7726,-3.7757,-3.7778,-3.7799,-3.7836,-3.7884,-3.7862,-3.7879,-3.787,-3.7904,-3.798,-3.7875,-3.7875,-3.7894,-3.8067,-3.8085,-3.81,-3.7967,-3.797,-3.7972,-3.8066,0,-3.7675,-3.7751,-3.7741,-3.7814,-3.7849,-3.7823,-3.7862,-3.7879,-3.7881,-3.7912,-3.7915,-3.7949,-3.7917,-3.7927,-3.796,-3.7964,-3.8015,-3.7957,-3.8003,-3.8005,-3.7998,-3.8116,-3.8135,-3.8223,-3.8077,-3.8079,-3.8081,0,-3.7787,-3.7811,-3.7888,-3.7903,-3.7917,-3.7952,-3.7981,-3.801,-3.803,-3.8029,-3.8049,-3.8035,-3.8081,-3.8039,-3.8103,-3.8064,-3.8083,-3.8088,-3.8092,-3.8095,-3.8047,-3.8123,-3.8251,-3.8264,-3.81,-3.8098,-3.8097,0,-3.7865,-3.7918,-3.7971,-3.7982,-3.8001,-3.8027,-3.8036,-3.8053,-3.8073,-3.8099,-3.8112,-3.8143,-3.816,-3.8185,-3.8181,-3.815,-3.8247,-3.8204,-3.8249,-3.8249,-3.8269,-3.8268,-3.8402,-3.8282,-3.8282,-3.8281,-3.8281,0,-3.7963,-3.8011,-3.8006,-3.8039,-3.8092,-3.8082,-3.8136,-3.8142,-3.8158,-3.8192,-3.8173,-3.8206,-3.8198,-3.8231,-3.8228,-3.8282,-3.829,-3.8292,-3.829,-3.8293,-3.8293,-3.8305,-3.8298,-3.8285,-3.8284,-3.8283,-3.8283,0,-3.806,-3.8058,-3.8114,-3.8128,-3.8133,-3.8172,-3.8185,-3.8216,-3.8218,-3.8262,-3.8272,-3.8275,-3.8313,-3.8311,-3.8355,-3.8353,-3.842,-3.8411,-3.8413,-3.8411,-3.8456,-3.8452,-3.8602,-3.8622,-3.8489,-3.849,-3.8491,0,-3.8122,-3.8158,-3.8177,-3.8199,-3.821,-3.8244,-3.8265,-3.8258,-3.828,-3.8306,-3.8335,-3.8371,-3.84,-3.8463,-3.8469,-3.8503,-3.8495,-3.8546,-3.85,-3.8503,-3.8496,-3.8494,-3.8498,-3.8554,-3.8556,-3.8557,-3.8558,0,-3.8234,-3.8232,-3.8261,-3.8293,-3.8318,-3.8342,-3.8363,-3.8382,-3.8378,-3.8404,-3.8443,-3.8465,-3.851,-3.8547,-3.858,-3.859,-3.8574,-3.8573,-3.8585,-3.8588,-3.8588,-3.8589,-3.8437,-3.8569,-3.8568,-3.8567,-3.8566,-3.8566,-3.8315,-3.8347,-3.8365,-3.84,-3.8416,-3.8437,-3.8468,-3.8474,-3.8506,-3.8542,-3.8536,-3.858,-3.86,-3.8642,-3.8657,-3.8692,-3.8674,-3.8692,-3.8696,-3.8701,-3.8706,-3.8583,-3.8698,-3.8697,-3.8697,-3.8697,-3.8697,0,-3.8425,-3.8437,-3.8469,-3.85,-3.8529,-3.8511,-3.8535,-3.856,-3.8598,-3.8619,-3.8648,-3.8694,-3.873,-3.874,-3.8776,-3.8802,-3.8796,-3.8812,-3.8809,-3.8813,-3.8719,-3.8705,-3.8816,-3.8816,-3.8816,-3.8816,-3.8816,-3.8816,-3.8486,-3.8539,-3.854,-3.8602,-3.8613,-3.8655,-3.8671,-3.8691,-3.8708,-3.8759,-3.8789,-3.8796,-3.8813,-3.885,-3.8883,-3.8886,-3.89,-3.8919,-3.8918,-3.8831,-3.8819,-3.8807,-3.8794,-3.8922,-3.8922,-3.9009,-3.9009,-3.901]},{"header":{"parameterUnit":"m.s-1","parameterCategory":1,"la1":30.2991,"la2":30.254,"lo1":-89.0895,"lo2":-89.0444,"dy":0.0017,"dx":0.0017,"nx":28,"ny":28,"refTime":"2024-12-15T09:00:00:Z","depth":0,"parameterNumber":3,"parameterNumberName":"V-component_of_WINDS"},"data":[0,0,0,0,0,0,0,0,0,0,0,0,0,0,0,0,0,0,0,0,0,0,0,0,0,0,0,0,0,0,0,0,0,0,0,0,0,0,0,0,0,0,0,0,0,0,0,0,0,0,0,0,0,0,0,0,0,0,0.4973,0.4973,0,0.4939,0.4938,0.4938,0.4931,0.4931,0.4931,0.4932,0.4894,0.4893,0.4892,0,0,0,0,0,0,0,0,0,0,0,0,0,0.5033,0.5032,0.4973,0.4973,0.4972,0.4939,0.4938,0.4938,0.4931,0.4931,0.4932,0.4932,0.4895,0.4893,0.4892,0,0,0,0,0,0,0,0,0,0,0,0,0,0.5003,0.5031,0.4973,0.4965,0.4964,0.4939,0.4938,0.4937,0.4931,0.4931,0.4932,0.4932,0.4895,0.4893,0.4892,0.4872,0,0,0.4886,0.4885,0,0,0,0,0,0,0,0,0.5005,0.5001,0.4966,0.4965,0.4964,0.494,0.4945,0.4915,0.4931,0.4943,0.4932,0.4932,0.4909,0.4906,0.4898,0.487,0.4868,0.4886,0.4885,0.4884,0.4883,0,0,0,0,0,0,0,0.5007,0.5003,0.4959,0.4966,0.4965,0.4963,0.4959,0.494,0.4924,0.4942,0.4942,0.4938,0.4908,0.49,0.4898,0.4868,0.4886,0.4884,0.4883,0.4882,0.4823,0.4823,0,0,0,0,0,0,0.5011,0.5004,0.496,0.4958,0.4986,0.4961,0.4957,0.4947,0.4924,0.4921,0.4937,0.4938,0.4903,0.49,0.4896,0.4873,0.4884,0.4882,0.4881,0.4824,0.4823,0.4823,0,0,0,0,0,0,0.5012,0.5007,0.4962,0.4981,0.4975,0.496,0.4948,0.4946,0.4938,0.4921,0.4918,0.4932,0.4903,0.4899,0.4878,0.4871,0.4881,0.4879,0.4824,0.4824,0.4823,0.4825,0,0,0,0,0,0,0.5014,0.5007,0.5,0.4981,0.4974,0.4945,0.4948,0.4945,0.4935,0.4935,0.4915,0.4912,0.4903,0.4881,0.4877,0.4869,0.4878,0.4825,0.4824,0.4823,0.4825,0.4824,0.4824,0,0,0,0,0,0.5016,0.5001,0.4999,0.4994,0.4964,0.4944,0.494,0.4931,0.4934,0.4927,0.4916,0.4913,0.4873,0.4879,0.4874,0.4866,0.4825,0.4824,0.4823,0.4826,0.4825,0.4824,0,0,0,0,0,0,0.5017,0.4998,0.4996,0.4974,0.4961,0.4943,0.4933,0.493,0.4915,0.4915,0.4904,0.49,0.4881,0.4871,0.4878,0.4846,0.4849,0.4847,0.4853,0.4852,0.4851,0.4854,0.4876,0,0,0,0,0,0.5015,0.5001,0.4985,0.4967,0.4961,0.4948,0.4939,0.4933,0.4919,0.4913,0.4901,0.4886,0.4871,0.4861,0.4845,0.4824,0.482,0.4816,0.4815,0.4815,0.4813,0.4803,0.4801,0.482,0.482,0.482,0,0,0.501,0.4998,0.4989,0.4967,0.4956,0.4942,0.4943,0.4927,0.4917,0.491,0.4891,0.4882,0.4865,0.4845,0.4835,0.4836,0.4807,0.4813,0.4813,0.4811,0.4801,0.48,0.4798,0.4819,0.4819,0.4819,0,0,0.4994,0.4983,0.4968,0.4958,0.4942,0.4934,0.4931,0.4914,0.4908,0.4888,0.4884,0.4871,0.4844,0.4833,0.4824,0.4807,0.4804,0.4802,0.4797,0.4787,0.4786,0.4784,0.4779,0.4777,0.48,0.48,0.48,0,0.499,0.4968,0.496,0.4946,0.4936,0.4932,0.4917,0.4907,0.4887,0.488,0.4882,0.485,0.4838,0.4816,0.4812,0.4805,0.4801,0.4804,0.4787,0.4785,0.4784,0.4779,0.4777,0.48,0.48,0.48,0.48,0,0.4964,0.495,0.494,0.4922,0.4911,0.4896,0.4887,0.4877,0.4873,0.4865,0.4847,0.4833,0.4816,0.481,0.4805,0.4788,0.4789,0.4789,0.4792,0.4782,0.4777,0.4775,0.48,0.48,0.48,0.48,0,0,0.4946,0.4927,0.4923,0.4916,0.4899,0.4887,0.4873,0.4857,0.485,0.4837,0.4825,0.4803,0.4804,0.4793,0.4788,0.4779,0.4768,0.478,0.4779,0.4779,0.4749,0.475,0.4747,0.4766,0.4766,0.4765,0.4751,0,0.4929,0.4904,0.4897,0.4876,0.4863,0.486,0.4847,0.4836,0.4829,0.4817,0.4808,0.4794,0.4795,0.4789,0.478,0.4771,0.4762,0.4772,0.4755,0.4754,0.4759,0.4745,0.4745,0.4732,0.4749,0.4748,0.4748,0,0.4905,0.4893,0.487,0.4858,0.4852,0.4841,0.4827,0.4816,0.4803,0.4799,0.4789,0.4784,0.477,0.4774,0.4754,0.4761,0.4754,0.4748,0.4748,0.4746,0.4751,0.4743,0.4727,0.4725,0.4745,0.4745,0.4745,0,0.4895,0.4873,0.4858,0.4851,0.4836,0.4828,0.4821,0.4809,0.4801,0.4789,0.4784,0.477,0.4762,0.4751,0.4743,0.4747,0.4725,0.4728,0.4721,0.4721,0.4716,0.4716,0.4699,0.4711,0.4711,0.4711,0.4711,0,0.4876,0.4863,0.4853,0.4844,0.4829,0.4822,0.4808,0.4801,0.4791,0.478,0.4776,0.4765,0.4756,0.4744,0.4738,0.4723,0.472,0.4716,0.4714,0.4716,0.4717,0.4711,0.4712,0.471,0.471,0.471,0.471,0,0.4863,0.4856,0.4839,0.4826,0.4823,0.4813,0.4802,0.4793,0.4786,0.4773,0.4769,0.4759,0.4745,0.4737,0.4719,0.4715,0.4699,0.4698,0.4704,0.4703,0.4697,0.4697,0.4675,0.4672,0.4686,0.4686,0.4686,0,0.4851,0.4841,0.4828,0.4822,0.4815,0.4803,0.4796,0.4789,0.4781,0.4768,0.476,0.4747,0.4736,0.4715,0.4705,0.4692,0.4691,0.4684,0.4689,0.4692,0.4691,0.4692,0.4692,0.4683,0.4683,0.4683,0.4683,0,0.4832,0.483,0.4819,0.4808,0.4799,0.4789,0.4779,0.4774,0.4766,0.4757,0.4744,0.4736,0.4719,0.4706,0.4693,0.4685,0.4683,0.4682,0.4679,0.4681,0.4686,0.4684,0.4702,0.4682,0.4682,0.4682,0.4682,0.4682,0.482,0.4811,0.4802,0.479,0.4783,0.4775,0.4766,0.4759,0.4749,0.4735,0.4732,0.4719,0.4708,0.469,0.4683,0.4673,0.4673,0.467,0.4669,0.4668,0.4669,0.4687,0.467,0.467,0.467,0.467,0.467,0,0.4801,0.4795,0.4785,0.4773,0.4764,0.4764,0.4754,0.4746,0.4735,0.4726,0.4716,0.4702,0.469,0.4681,0.4668,0.4662,0.4661,0.4659,0.4659,0.4658,0.4668,0.4672,0.466,0.466,0.466,0.466,0.466,0.466,0.479,0.4777,0.4774,0.4757,0.4751,0.4739,0.4733,0.4726,0.4719,0.4704,0.4694,0.4689,0.468,0.4667,0.4656,0.4654,0.465,0.4649,0.4646,0.4656,0.4657,0.4658,0.4661,0.4648,0.4648,0.4637,0.4636,0.4636]}]]